Mobile Downtown, AL

9:14 AM CDT on July 28, 2017 (GMT -0500)
Mobile Downtown

Weather History for KBFM - January, 2014

Change the Weather History Date:

Friday, January 24, 2014

  Actual Average Record
Temperature  
Mean Temperature 34 °F -  
Max Temperature 37 °F 58 °F 73 °F (1997)
Min Temperature 32 °F 40 °F 19 °F (2003)
Degree Days  
Heating Degree Days 30    
Moisture  
Dew Point 14 °F    
Average Humidity 45    
Maximum Humidity 66    
Minimum Humidity 34    
Precipitation  
Precipitation 0.00 in - - ()
Sea Level Pressure  
Sea Level Pressure 30.52 in    
Wind  
Wind Speed 12 mph (North)    
Max Wind Speed 17 mph    
Max Gust Speed 25 mph    
Visibility 10 miles    
Events Rain    
Averages and records for this station are not official NWS values.
T = Trace of Precipitation, MM = Missing Value Source: NWS Daily Summary

Daily Weather History Graph

Daily Weather History Graph

Search for Another Location

Airport or City:

Trip Planner

Search our weather history database for the weather conditions in past years. The results will help you decide how hot, cold, wet, or windy it might be!

Date:

Astronomy

Jan. 24, 2014 Rise Set
Actual Time 6:47 AM CST 5:21 PM CST
Civil Twilight 6:22 AM CST 5:47 PM CST
Nautical Twilight 5:52 AM CST 6:16 PM CST
Astronomical Twilight 5:24 AM CST 6:44 PM CST
Moon 12:20 AM CST (1/24) 11:35 AM CST (1/24)
Length of Visible Light 11h 25m
Length of Day
10h 33m
Last Quarter, 44% of the Moon is Illuminated
Jan 24
Last Quarter
Jan 30
New
Feb 6
First Quarter
Feb 14
Full
Feb 22
Last Quarter

Hourly Weather History & Observations

Time (CST) Temp. Windchill Dew Point Humidity Pressure Visibility Wind Dir Wind Speed Gust Speed Precip Events Conditions
12:53 AM 37.0 °F 27.4 °F 15.1 °F 41% 30.59 in 10.0 mi North 17.3 mph 24.2 mph N/A   Overcast
1:53 AM 36.0 °F 26.3 °F 16.0 °F 44% 30.60 in 10.0 mi North 16.1 mph 23.0 mph N/A   Overcast
2:53 AM 35.1 °F 25.9 °F 16.0 °F 46% 30.59 in 10.0 mi North 13.8 mph - N/A   Overcast
3:25 AM 34.0 °F 25.0 °F 12.9 °F 42% 30.60 in 10.0 mi North 12.7 mph - N/A   Overcast
3:53 AM 34.0 °F 25.0 °F 10.9 °F 38% 30.58 in 10.0 mi North 12.7 mph - N/A   Overcast
4:53 AM 33.1 °F 22.2 °F 9.0 °F 37% 30.58 in 10.0 mi North 17.3 mph 20.7 mph N/A   Overcast
5:53 AM 33.1 °F 23.4 °F 9.0 °F 37% 30.59 in 10.0 mi North 13.8 mph 25.3 mph N/A   Overcast
6:53 AM 32.0 °F 21.6 °F 10.9 °F 42% 30.59 in 10.0 mi NNE 15.0 mph 21.9 mph N/A   Overcast
7:53 AM 33.1 °F 23.4 °F 10.9 °F 40% 30.61 in 10.0 mi North 13.8 mph - 0.00 in   Overcast
8:53 AM 32.0 °F 22.1 °F 10.0 °F 40% 30.62 in 10.0 mi NNE 13.8 mph - 0.00 in Rain Light Rain
9:53 AM 32.0 °F 22.5 °F 8.1 °F 37% 30.62 in 10.0 mi NNE 12.7 mph - 0.00 in   Overcast
10:53 AM 34.0 °F 25.0 °F 9.0 °F 35% 30.59 in 10.0 mi North 12.7 mph - 0.00 in   Overcast
11:53 AM 34.0 °F 26.6 °F 10.0 °F 37% 30.55 in 10.0 mi North 9.2 mph - 0.00 in   Overcast
12:53 PM 35.1 °F 28.6 °F 9.0 °F 34% 30.52 in 10.0 mi North 8.1 mph - 0.00 in   Overcast
1:53 PM 36.0 °F 28.5 °F 10.9 °F 36% 30.50 in 10.0 mi North 10.4 mph - 0.00 in   Overcast
2:53 PM 35.1 °F 26.9 °F 10.9 °F 37% 30.48 in 10.0 mi North 11.5 mph - 0.00 in   Overcast
3:53 PM 34.0 °F 25.5 °F 12.0 °F 40% 30.48 in 10.0 mi NNW 11.5 mph - 0.00 in   Overcast
4:53 PM 32.0 °F 24.8 °F 16.0 °F 52% 30.48 in 10.0 mi North 8.1 mph - 0.00 in   Overcast
5:53 PM 32.0 °F 27.5 °F 17.1 °F 54% 30.47 in 10.0 mi North 4.6 mph - 0.00 in   Overcast
6:53 PM 32.0 °F 27.5 °F 18.0 °F 56% 30.47 in 10.0 mi NNW 4.6 mph - 0.00 in   Overcast
7:53 PM 32.0 °F 28.7 °F 19.9 °F 61% 30.45 in 10.0 mi NNW 3.5 mph - N/A   Overcast
8:53 PM 33.1 °F - 21.0 °F 61% 30.42 in 10.0 mi Calm Calm - N/A   Overcast
9:53 PM 33.1 °F - 23.0 °F 66% 30.40 in 10.0 mi Calm Calm - 0.00 in   Overcast
10:53 PM 34.0 °F - 21.0 °F 59% 30.37 in 10.0 mi Calm Calm - N/A   Overcast
11:53 PM 35.1 °F 32.2 °F 23.0 °F 61% 30.35 in 10.0 mi Variable 3.5 mph - N/A   Overcast